Temp
74 74 74 73 72 71 73 74 73 74 74 74 74 74 74 75 74 75 74 74 72 72 72 72 72 72 74 72 72 73 74 74 74 74 74 74 74 74 74 73 72 72 72 71 71 71 71 71 71 71 71 71 72 69 67 68 72 71 71 71 71 71
74 75 74 73 73 72 72 73 72 72 72 73 73 74 73 73 75 72 74 72 71 73 71 71 71 74 72 74 74 73 74 74 74 74 74 73 73 73 73 73 72 72 71 71 71 68 68 71 71 71 71 72 68 66 67 69 70 71 70 70 70 72
75 74 74 73 72 73 72 72 72 72 73 74 75 74 72 74 72 72 72 72 72 72 73 72 72 74 73 74 73 73 74 74 74 74 73 73 73 73 73 72 72 72 71 71 68 65 65 65 66 71 71 68 65 66 68 69 70 69 69 70 70 74
74 73 72 72 72 71 70 70 70 71 72 72 72 72 71 72 74 74 75 72 71 71 70 69 74 74 72 70 72 73 73 74 74 74 73 72 73 72 72 72 72 71 70 70 66 66 66 66 65 65 65 64 65 66 68 70 70 69 69 72 72 73
74 73 72 71 71 70 70 69 69 70 70 70 70 70 70 71 70 71 72 70 70 70 69 67 67 68 68 69 68 69 72 71 70 69 71 67 68 71 70 69 68 68 66 66 66 67 68 67 65 65 65 65 66 67 69 70 70 69 69 70 70 73
72 72 71 69 70 71 70 68 68 70 69 69 70 69 69 69 68 68 68 69 68 67 67 67 67 67 67 67 67 66 68 71 70 69 69 68 68 68 67 67 67 67 66 67 67 68 69 68 67 65 65 66 67 68 69 69 70 69 68 67 70 72
70 70 71 72 70 68 68 67 68 68 67 67 68 68 67 67 67 67 68 69 67 66 66 66 66 66 66 66 67 67 68 70 70 68 69 68 68 68 67 67 66 67 67 67 69 70 70 69 69 68 67 68 68 70 70 71 70 68 67 67 70 72
70 70 70 72 70 68 67 68 69 69 67 70 68 67 67 68 68 67 68 68 68 66 66 66 66 66 66 66 66 67 67 68 71 70 70 70 69 68 68 67 67 68 69 69 70 71 71 72 70 69 69 69 69 70 71 70 69 68 67 67 69 71
68 68 69 71 69 68 67 67 66 66 66 70 66 66 67 67 67 67 68 67 68 66 66 66 66 66 67 66 66 67 67 68 70 71 70 70 71 69 68 68 68 69 69 70 69 69 72 72 70 69 71 71 71 70 70 70 69 68 67 67 67 70
67 68 67 70 69 67 67 65 65 66 67 67 65 66 66 66 66 66 66 67 68 67 66 66 66 66 67 66 66 67 67 68 69 67 67 69 70 70 70 69 68 69 71 70 70 70 71 72 72 71 71 72 71 71 69 70 70 69 68 67 67 69
69 67 67 70 67 67 67 66 66 66 66 65 66 66 66 66 67 67 67 68 68 68 66 66 66 66 67 66 67 67 66 67 67 68 68 68 68 70 71 70 70 70 70 71 72 71 71 70 71 72 71 72 72 73 72 71 72 70 69 68 67 68
65 66 66 68 69 68 67 68 67 66 66 66 66 64 65 67 67 66 67 68 67 67 67 66 67 67 66 66 66 67 67 67 67 67 68 68 67 68 70 73 74 72 70 71 70 70 70 69 69 73 72 71 71 73 72 71 73 70 70 68 68 68
65 64 65 65 66 66 66 70 67 66 66 68 66 65 65 66 66 68 67 67 66 67 67 66 66 66 67 66 67 67 66 67 67 68 67 68 68 68 68 68 70 73 72 71 70 70 72 68 68 68 71 73 70 72 74 73 73 71 70 69 68 68
64 65 65 66 67 66 67 66 67 66 66 65 66 66 66 65 67 67 67 67 67 68 67 67 66 66 66 66 66 66 67 67 67 67 67 67 66 66 67 68 69 71 72 71 69 69 67 68 68 69 70 70 69 70 71 73 72 72 70 69 69 68
64 63 64 64 64 65 64 66 66 64 64 64 67 67 65 66 66 66 67 66 66 67 69 67 67 66 66 66 66 65 66 67 67 67 67 67 67 67 67 68 69 69 70 68 68 68 69 69 69 70 69 67 71 71 71 72 72 72 71 70 69 68
62 62 62 64 63 65 65 64 64 68 64 64 65 65 66 66 67 66 66 66 66 68 69 67 67 66 66 66 67 65 65 66 67 67 67 67 67 66 67 67 68 68 67 69 69 68 68 69 68 69 69 68 68 70 71 70 70 71 72 71 70 68
62 62 63 64 64 64 64 64 64 64 65 63 63 63 65 64 67 67 66 67 67 68 68 68 68 67 66 66 66 65 66 67 67 67 67 66 66 66 66 67 67 68 68 68 70 71 69 68 69 70 70 67 68 69 71 71 69 71 76 71 71 69
61 62 62 62 63 63 63 64 63 64 66 65 63 63 65 66 66 66 67 66 66 66 66 66 67 66 65 67 66 65 66 67 67 67 66 66 66 66 65 66 66 68 69 70 69 70 69 68 71 72 69 67 69 66 67 69 70 69 70 71 71 71
62 62 62 62 63 63 62 62 61 63 63 63 65 64 64 65 63 64 65 66 65 66 66 65 65 66 64 65 65 66 65 66 66 66 65 64 66 66 66 66 66 66 68 69 68 68 68 67 70 70 71 70 68 69 67 67 69 70 68 70 71 73
61 62 62 63 63 62 60 62 61 61 62 61 62 64 64 63 64 63 65 64 63 64 65 64 64 64 64 65 63 64 64 65 65 65 65 65 64 65 65 66 65 65 65 66 69 69 67 65 65 65 65 66 68 70 70 66 67 69 69 69 69 70
61 60 61 61 63 61 60 61 59 58 59 60 62 62 63 62 63 63 63 64 64 64 63 64 65 63 62 66 63 62 62 62 63 64 64 64 66 66 66 65 65 64 65 65 66 67 67 66 65 62 61 64 64 67 69 69 68 68 69 68 68 67
61 61 60 61 60 60 58 59 58 59 59 60 61 60 61 60 62 64 63 62 62 63 61 61 63 63 63 62 62 61 62 61 62 62 63 64 64 64 64 64 64 63 65 65 64 66 66 66 62 60 60 60 60 62 64 67 70 71 70 70 69 68
62 60 60 62 60 61 60 60 58 59 58 60 62 61 61 62 64 63 61 62 61 62 62 61 62 63 63 63 62 62 61 62 61 62 61 61 61 63 63 63 64 63 63 64 65 67 65 66 61 61 61 60 56 60 59 65 65 68 71 71 70 70
63 60 61 61 62 60 62 61 61 61 60 60 62 63 61 61 62 61 61 62 61 59 61 61 61 63 63 62 61 62 62 62 62 62 62 61 60 61 61 62 63 63 63 61 63 65 66 65 64 61 58 58 57 59 55 59 63 66 69 70 70 71
63 61 61 62 61 61 63 60 61 61 61 61 61 59 58 59 60 61 61 60 60 61 63 61 62 61 62 61 61 61 61 61 61 62 62 62 61 62 62 62 63 63 62 61 61 64 65 66 66 65 61 59 58 57 58 60 61 63 65 67 69 72
62 61 61 60 62 62 62 59 59 58 58 57 56 57 55 56 58 57 58 59 60 60 61 62 61 61 61 62 60 60 60 61 60 61 62 62 63 63 63 62 63 62 62 62 62 60 61 64 66 66 65 65 63 60 59 61 61 56 62 67 69 72
63 62 61 61 61 62 60 60 59 59 58 57 55 57 56 56 57 58 57 58 59 60 60 60 61 61 62 61 60 60 60 60 60 60 61 61 60 62 64 64 64 63 63 62 61 60 60 61 64 64 65 66 65 64 64 62 58 60 59 60 65 66
63 63 62 62 61 62 61 60 59 58 59 57 58 57 57 57 57 59 58 59 59 59 60 60 59 60 60 63 61 59 59 59 59 61 62 62 60 62 63 63 63 64 64 63 62 61 61 61 61 62 63 62 62 65 66 67 67 63 60 59 61 66
62 63 62 62 62 61 61 60 60 59 58 58 59 59 59 59 58 58 57 57 57 59 60 61 59 59 60 61 62 60 58 58 59 59 61 62 61 61 60 60 61 60 62 62 62 62 61 61 61 61 62 61 62 61 62 63 65 65 62 60 61 63
62 62 62 62 62 60 60 61 59 58 58 57 60 59 58 57 57 56 56 56 57 58 58 59 59 59 60 60 59 60 60 59 57 58 61 59 59 60 60 60 59 59 60 60 61 62 62 62 62 62 62 62 61 61 61 61 61 61 62 63 59 60
62 62 62 62 61 61 59 61 60 59 58 58 58 58 57 57 56 56 55 56 56 57 56 58 58 58 59 60 59 60 59 59 59 59 59 59 59 59 59 59 60 60 59 59 59 60 61 62 62 62 63 62 62 62 61 60 60 61 61 60 58 60
61 61 61 62 61 61 59 60 60 60 58 59 58 59 57 57 56 56 56 56 56 56 57 57 57 57 57 58 58 58 58 58 58 57 57 58 59 60 59 58 58 59 59 59 60 61 60 60 61 61 61 62 62 63 63 62 62 62 61 60 61 61
61 61 61 61 61 60 58 60 60 59 58 59 58 58 57 57 56 57 55 56 56 56 56 57 57 56 56 56 56 56 57 57 56 56 57 57 57 57 58 59 59 58 58 58 58 58 58 59 60 60 61 62 62 63 63 64 64 62 62 61 61 58
62 61 61 61 60 59 59 59 58 59 58 58 58 58 57 58 57 57 57 56 55 54 54 55 55 55 56 56 57 57 56 56 56 56 57 55 56 56 56 57 58 57 57 58 58 58 58 59 59 60 61 61 62 63 63 64 64 63 61 60 59 59
62 60 61 60 60 60 59 59 58 59 58 58 58 57 56 58 58 57 57 57 56 54 54 54 55 55 57 57 56 56 57 57 56 56 56 55 57 55 55 56 56 57 57 57 58 58 58 58 59 59 59 60 61 62 62 64 64 64 64 62 62 61
62 61 61 60 60 60 59 59 58 58 58 58 59 58 57 57 57 57 56 56 55 54 54 54 55 56 56 55 55 56 56 56 55 55 55 55 54 55 54 54 55 56 55 59 57 57 58 58 58 58 58 59 60 61 62 63 64 64 63 64 62 62
63 62 61 61 60 60 59 58 57 58 57 57 57 57 57 55 56 57 56 54 54 54 54 54 55 55 56 56 54 54 54 54 54 54 53 54 54 54 54 53 54 53 54 55 56 56 56 56 57 58 58 58 59 60 61 62 63 63 63 63 63 63
MSLP
1014.57 1014.69 1014.89 1015.09 1015.21 1015.33 1015.41 1015.49 1015.69 1015.81 1015.97 1016.13 1016.25 1016.41 1016.73 1016.49 1016.69 1016.81 1016.93 1017.05 1017.17 1017.29 1017.37 1017.45 1017.61 1017.77 1017.89 1018.01 1018.05 1018.37 1018.57 1018.69 1018.77 1018.89 1019.05 1019.13 1019.25 1019.37 1019.53 1019.73 1019.85 1019.97 1020.13 1020.13 1020.17 1020.25 1020.21 1020.17 1020.01 1019.85 1019.85 1019.89 1019.73 1019.73 1020.13 1020.25 1020.21 1020.45 1020.45 1020.53 1020.69 1020.73
1014.57 1014.69 1014.85 1015.05 1015.17 1015.33 1015.45 1015.65 1015.85 1015.97 1016.09 1016.25 1016.33 1016.45 1016.57 1016.61 1016.77 1016.89 1016.97 1017.09 1017.21 1017.29 1017.41 1017.53 1017.65 1017.81 1017.97 1018.01 1018.09 1018.41 1018.65 1018.73 1018.85 1018.97 1019.05 1019.17 1019.25 1019.37 1019.53 1019.73 1019.85 1019.97 1020.09 1020.17 1020.25 1020.33 1020.33 1020.25 1020.13 1020.01 1019.97 1020.05 1019.89 1019.85 1020.13 1020.49 1020.41 1020.49 1020.65 1020.73 1020.73 1020.77
1014.57 1014.65 1014.85 1015.05 1015.25 1015.37 1015.57 1015.77 1015.93 1016.05 1016.17 1016.29 1016.37 1016.45 1016.61 1016.69 1016.77 1016.89 1016.97 1017.05 1017.09 1017.21 1017.33 1017.49 1017.65 1017.85 1018.05 1018.09 1018.17 1018.41 1018.69 1018.81 1018.97 1019.05 1019.17 1019.25 1019.33 1019.41 1019.45 1019.65 1019.77 1019.89 1020.05 1020.21 1020.33 1020.41 1020.41 1020.33 1020.25 1020.13 1020.09 1020.17 1020.13 1019.97 1020.05 1020.49 1020.49 1020.49 1020.69 1020.77 1020.77 1020.77
1014.65 1014.77 1014.97 1015.21 1015.37 1015.57 1015.69 1015.85 1016.01 1016.09 1016.21 1016.33 1016.45 1016.53 1016.61 1016.61 1016.65 1016.73 1016.81 1016.97 1017.13 1017.25 1017.41 1017.53 1017.57 1017.73 1018.09 1018.49 1018.45 1018.53 1018.77 1018.89 1019.05 1019.17 1019.29 1019.37 1019.45 1019.53 1019.53 1019.53 1019.69 1019.89 1020.09 1020.25 1020.45 1020.57 1020.53 1020.45 1020.41 1020.29 1020.25 1020.25 1020.17 1020.09 1020.13 1020.61 1020.57 1020.65 1020.73 1020.65 1020.73 1020.77
1014.53 1014.73 1014.97 1015.21 1015.49 1015.77 1015.77 1015.93 1016.09 1016.21 1016.33 1016.45 1016.57 1016.65 1016.69 1016.73 1016.73 1016.73 1016.89 1017.13 1017.25 1017.29 1017.49 1017.65 1017.77 1017.89 1018.21 1018.49 1018.77 1018.81 1018.81 1019.05 1019.17 1019.37 1019.41 1019.57 1019.57 1019.57 1019.57 1019.65 1019.77 1019.93 1020.13 1020.29 1020.53 1020.57 1020.53 1020.53 1020.49 1020.45 1020.37 1020.29 1020.29 1020.13 1020.13 1020.61 1020.57 1020.65 1020.77 1020.77 1020.73 1020.73
1014.73 1014.93 1015.13 1015.37 1015.61 1015.69 1015.77 1016.09 1016.25 1016.33 1016.53 1016.57 1016.61 1016.73 1016.81 1016.85 1016.89 1017.13 1017.21 1017.25 1017.33 1017.45 1017.57 1017.69 1017.81 1018.09 1018.41 1018.73 1018.89 1019.17 1019.17 1019.13 1019.33 1019.45 1019.41 1019.61 1019.57 1019.57 1019.69 1019.69 1019.81 1019.93 1020.05 1020.17 1020.37 1020.45 1020.41 1020.41 1020.53 1020.45 1020.37 1020.29 1020.29 1020.21 1020.13 1020.57 1020.53 1020.61 1020.73 1020.89 1020.81 1020.77
1015.01 1015.13 1015.25 1015.41 1015.65 1015.85 1016.01 1016.13 1016.25 1016.37 1016.65 1016.85 1016.77 1016.89 1016.97 1016.89 1016.93 1017.25 1017.29 1017.29 1017.49 1017.57 1017.69 1017.85 1018.05 1018.33 1018.53 1018.69 1019.01 1019.17 1019.17 1019.29 1019.33 1019.45 1019.37 1019.53 1019.61 1019.49 1019.61 1019.65 1019.69 1019.77 1019.85 1020.05 1020.21 1020.25 1020.25 1020.25 1020.33 1020.33 1020.21 1020.21 1020.21 1020.21 1020.17 1020.53 1020.45 1020.61 1020.77 1020.85 1020.81 1020.73
1014.93 1015.21 1015.37 1015.45 1015.73 1015.93 1016.09 1016.17 1016.29 1016.45 1016.57 1016.73 1016.89 1017.05 1016.97 1016.85 1017.05 1017.37 1017.41 1017.37 1017.49 1017.61 1017.73 1017.93 1018.17 1018.37 1018.57 1018.73 1019.09 1019.33 1019.17 1019.33 1019.17 1019.25 1019.25 1019.33 1019.53 1019.45 1019.49 1019.53 1019.57 1019.61 1019.73 1019.81 1020.01 1020.05 1020.09 1020.09 1020.17 1020.17 1020.17 1020.09 1020.09 1020.13 1020.01 1020.29 1020.53 1020.53 1020.69 1020.85 1020.89 1020.85
1015.13 1015.37 1015.33 1015.49 1015.81 1016.01 1016.17 1016.25 1016.37 1016.53 1016.69 1016.73 1016.97 1017.05 1016.97 1016.93 1017.17 1017.37 1017.45 1017.53 1017.57 1017.73 1017.73 1017.85 1018.21 1018.37 1018.49 1018.69 1018.77 1018.97 1019.21 1019.21 1019.17 1019.21 1019.25 1019.37 1019.33 1019.37 1019.37 1019.41 1019.45 1019.45 1019.49 1019.61 1019.73 1019.93 1019.89 1019.85 1019.97 1019.97 1020.01 1019.97 1019.89 1019.93 1019.77 1020.29 1020.57 1020.73 1020.77 1020.81 1020.81 1020.85
1015.33 1015.29 1015.37 1015.49 1015.81 1016.01 1016.17 1016.37 1016.49 1016.61 1016.69 1016.81 1017.05 1017.09 1017.01 1017.01 1017.13 1017.37 1017.53 1017.61 1017.65 1017.77 1017.85 1017.89 1018.09 1018.21 1018.37 1018.53 1018.73 1018.97 1019.01 1018.97 1019.17 1019.21 1019.25 1019.53 1019.37 1019.29 1019.21 1019.21 1019.29 1019.33 1019.37 1019.45 1019.49 1019.45 1019.53 1019.61 1019.69 1019.65 1019.53 1019.73 1019.81 1019.73 1019.69 1020.17 1020.41 1020.69 1020.73 1020.73 1020.81 1020.85
1015.37 1015.33 1015.37 1015.53 1015.77 1015.97 1016.05 1016.33 1016.45 1016.49 1016.61 1016.77 1016.97 1017.09 1017.13 1017.09 1017.13 1017.37 1017.49 1017.53 1017.61 1017.65 1017.77 1017.85 1017.93 1018.05 1018.13 1018.29 1018.69 1018.93 1018.81 1018.81 1019.05 1019.09 1019.29 1019.49 1019.37 1019.21 1019.09 1019.09 1019.13 1019.21 1019.21 1019.29 1019.25 1019.13 1019.01 1019.29 1019.45 1019.37 1019.33 1019.41 1019.57 1019.49 1019.61 1019.73 1020.17 1020.45 1020.77 1020.85 1020.77 1020.77
1015.49 1015.45 1015.45 1015.53 1015.53 1015.77 1015.97 1016.21 1016.37 1016.49 1016.57 1016.65 1016.89 1017.13 1017.17 1017.09 1017.13 1017.33 1017.41 1017.45 1017.57 1017.69 1017.77 1017.85 1017.81 1017.93 1018.21 1018.49 1018.77 1018.93 1018.97 1018.97 1019.05 1019.13 1019.21 1019.37 1019.33 1019.29 1019.13 1019.01 1018.85 1018.81 1018.89 1019.05 1019.09 1018.89 1018.73 1018.93 1019.25 1019.25 1019.29 1019.41 1019.33 1019.45 1019.53 1019.61 1019.85 1020.29 1020.53 1020.77 1020.81 1020.81
1015.57 1015.53 1015.57 1015.65 1015.69 1015.77 1015.89 1016.05 1016.29 1016.45 1016.53 1016.57 1016.89 1017.01 1017.09 1017.01 1017.01 1017.25 1017.41 1017.45 1017.57 1017.61 1017.61 1017.69 1017.77 1017.89 1018.09 1018.41 1018.65 1018.85 1019.01 1019.01 1019.05 1019.17 1019.37 1019.45 1019.29 1019.29 1019.21 1019.17 1019.01 1018.77 1018.73 1018.73 1018.93 1018.89 1018.61 1018.69 1018.93 1019.13 1019.09 1019.17 1019.37 1019.37 1019.33 1019.53 1019.61 1020.09 1020.41 1020.61 1020.69 1020.69
1015.69 1015.69 1015.73 1015.73 1015.77 1015.93 1016.09 1016.17 1016.13 1016.13 1016.25 1016.45 1016.73 1016.89 1016.93 1017.01 1017.05 1017.25 1017.41 1017.49 1017.49 1017.45 1017.45 1017.49 1017.61 1017.77 1017.89 1018.13 1018.45 1018.73 1018.85 1018.81 1018.73 1018.77 1019.09 1019.45 1019.53 1019.33 1019.29 1019.29 1019.21 1019.05 1018.89 1018.77 1018.97 1018.93 1018.85 1018.93 1018.89 1018.77 1018.81 1018.97 1019.09 1019.33 1019.29 1019.37 1019.45 1019.69 1020.09 1020.45 1020.61 1020.65
1015.85 1015.89 1015.85 1015.93 1015.97 1016.09 1016.13 1016.17 1016.21 1016.25 1016.25 1016.33 1016.53 1016.69 1016.81 1016.85 1017.01 1017.21 1017.45 1017.53 1017.49 1017.29 1017.25 1017.57 1017.61 1017.81 1018.01 1018.13 1018.49 1018.73 1018.45 1018.45 1018.37 1018.57 1018.85 1019.09 1019.29 1019.25 1019.21 1019.21 1019.13 1019.29 1018.97 1018.69 1018.77 1018.97 1018.85 1018.93 1018.89 1018.85 1018.81 1018.73 1019.05 1019.09 1019.29 1019.29 1019.29 1019.33 1019.81 1020.09 1020.33 1020.57
1016.01 1016.05 1016.05 1016.05 1016.09 1016.17 1016.17 1016.21 1016.25 1016.29 1016.37 1016.45 1016.57 1016.65 1016.61 1016.73 1016.85 1017.25 1017.53 1017.61 1017.53 1017.29 1017.09 1017.13 1017.53 1017.73 1018.01 1018.13 1018.49 1018.69 1018.53 1018.49 1018.49 1018.69 1018.85 1018.89 1018.97 1019.13 1019.13 1019.13 1018.97 1019.13 1019.25 1018.77 1018.73 1018.93 1018.89 1018.85 1018.85 1018.85 1018.69 1018.73 1018.89 1018.89 1019.09 1019.21 1019.29 1019.33 1019.33 1019.73 1020.09 1020.29
1016.21 1016.21 1016.21 1016.17 1016.17 1016.21 1016.29 1016.33 1016.37 1016.41 1016.45 1016.49 1016.61 1016.69 1016.69 1016.69 1016.97 1017.29 1017.41 1017.53 1017.45 1017.33 1017.17 1017.09 1017.29 1017.69 1018.05 1018.25 1018.57 1018.93 1018.57 1018.53 1018.57 1018.65 1018.73 1018.69 1018.93 1019.05 1019.17 1019.17 1019.05 1018.85 1018.89 1019.01 1018.77 1018.81 1018.81 1018.89 1018.81 1018.65 1018.61 1018.77 1018.73 1018.85 1018.97 1019.09 1019.25 1019.21 1019.13 1019.33 1019.73 1019.97
1016.21 1016.21 1016.25 1016.29 1016.25 1016.33 1016.37 1016.37 1016.45 1016.53 1016.53 1016.65 1016.69 1016.77 1016.85 1016.89 1017.09 1017.25 1017.41 1017.57 1017.53 1017.45 1017.37 1017.25 1017.25 1017.49 1017.97 1018.25 1018.57 1018.73 1018.41 1018.61 1018.61 1018.69 1018.85 1018.97 1019.09 1019.01 1019.09 1019.09 1019.21 1018.85 1018.77 1018.97 1018.89 1018.93 1018.93 1018.89 1018.85 1018.77 1018.81 1018.89 1018.73 1018.73 1018.77 1018.89 1018.97 1019.09 1019.21 1019.29 1019.29 1019.57
1016.25 1016.25 1016.25 1016.25 1016.29 1016.37 1016.53 1016.57 1016.61 1016.69 1016.81 1016.85 1016.85 1016.93 1016.97 1017.13 1017.29 1017.37 1017.45 1017.53 1017.57 1017.65 1017.57 1017.53 1017.49 1017.45 1017.69 1017.97 1018.45 1018.65 1018.41 1018.45 1018.53 1018.69 1019.05 1019.17 1018.93 1018.97 1019.05 1019.09 1019.21 1019.21 1018.89 1018.89 1018.97 1019.01 1018.93 1018.85 1018.97 1019.05 1018.93 1018.85 1018.85 1018.53 1018.53 1018.49 1018.61 1018.93 1019.13 1019.17 1019.13 1019.09
1016.29 1016.25 1016.25 1016.29 1016.41 1016.61 1016.73 1016.73 1016.85 1016.93 1017.13 1017.17 1017.09 1017.13 1017.25 1017.37 1017.37 1017.45 1017.49 1017.57 1017.77 1017.81 1017.81 1017.77 1017.69 1017.69 1017.69 1017.73 1017.93 1018.21 1018.49 1018.65 1018.57 1018.57 1018.85 1019.01 1018.85 1018.69 1018.89 1019.09 1019.21 1019.29 1019.17 1018.97 1018.69 1018.85 1018.93 1019.01 1019.01 1019.13 1019.17 1018.89 1018.65 1018.57 1018.45 1018.57 1018.57 1018.61 1018.81 1018.97 1019.01 1018.89
1016.29 1016.29 1016.41 1016.57 1016.61 1016.73 1017.01 1016.89 1016.93 1017.21 1017.37 1017.29 1017.37 1017.37 1017.45 1017.49 1017.53 1017.53 1017.57 1017.65 1017.81 1017.93 1017.93 1017.89 1017.85 1017.81 1017.85 1017.85 1017.97 1018.13 1018.33 1018.49 1018.49 1018.53 1018.73 1018.85 1018.69 1018.53 1018.49 1018.73 1019.05 1019.09 1019.09 1019.21 1019.05 1018.69 1018.77 1018.85 1019.25 1019.33 1019.05 1018.97 1018.65 1018.49 1018.37 1018.41 1018.61 1018.57 1018.49 1018.53 1018.65 1018.85
1016.29 1016.33 1016.53 1016.57 1016.65 1016.73 1016.77 1016.73 1017.05 1017.33 1017.29 1017.33 1017.49 1017.61 1017.69 1017.65 1017.65 1017.65 1017.65 1017.77 1017.93 1017.97 1018.01 1018.01 1018.01 1017.97 1017.89 1017.93 1018.05 1018.21 1018.33 1018.37 1018.41 1018.45 1018.49 1018.53 1018.73 1018.73 1018.69 1018.89 1018.97 1019.13 1018.89 1019.01 1019.13 1018.65 1018.69 1018.89 1019.57 1019.93 1020.09 1019.85 1019.29 1018.77 1018.53 1018.57 1018.57 1018.37 1018.25 1018.25 1018.33 1018.49
1016.25 1016.37 1016.41 1016.49 1016.57 1016.65 1016.69 1016.73 1016.89 1017.17 1017.25 1017.41 1017.33 1017.37 1017.49 1017.61 1017.65 1017.73 1017.85 1017.93 1017.97 1018.01 1018.09 1018.13 1018.09 1018.05 1018.05 1018.05 1018.13 1018.13 1018.25 1018.25 1018.37 1018.45 1018.53 1018.53 1018.57 1018.73 1018.89 1019.17 1019.05 1019.09 1019.25 1019.21 1019.01 1018.61 1018.73 1018.89 1019.73 1019.69 1019.77 1020.17 1020.33 1020.13 1019.21 1018.97 1018.69 1018.49 1018.17 1018.05 1018.13 1018.33
1016.17 1016.29 1016.37 1016.41 1016.37 1016.49 1016.57 1016.69 1016.81 1017.01 1017.17 1017.25 1017.49 1017.49 1017.57 1017.61 1017.73 1017.85 1018.09 1018.01 1018.01 1018.09 1018.17 1018.25 1018.21 1018.17 1018.17 1018.21 1018.13 1018.21 1018.25 1018.29 1018.37 1018.37 1018.49 1018.61 1018.69 1018.69 1018.69 1018.89 1018.97 1018.97 1019.05 1019.61 1019.41 1019.05 1018.69 1018.81 1019.13 1019.61 1020.53 1020.29 1020.21 1020.13 1020.53 1019.85 1019.29 1018.45 1018.05 1018.05 1018.05 1018.09
1016.01 1016.21 1016.25 1016.37 1016.41 1016.53 1016.69 1016.89 1016.97 1017.13 1017.25 1017.45 1017.57 1017.81 1017.85 1017.97 1017.93 1018.01 1018.17 1018.17 1018.17 1018.13 1018.25 1018.33 1018.29 1018.21 1018.25 1018.29 1018.29 1018.21 1018.29 1018.33 1018.37 1018.45 1018.49 1018.57 1018.65 1018.65 1018.57 1018.53 1018.57 1018.77 1018.93 1019.13 1019.37 1019.21 1018.93 1018.81 1018.89 1018.77 1019.33 1020.13 1020.41 1020.57 1020.13 1019.45 1019.29 1018.85 1018.21 1018.41 1018.09 1017.89
1015.89 1016.05 1016.17 1016.37 1016.41 1016.57 1016.85 1017.05 1017.37 1017.61 1017.81 1017.89 1018.13 1018.13 1018.21 1018.21 1018.21 1018.25 1018.33 1018.21 1018.21 1018.21 1018.29 1018.33 1018.37 1018.33 1018.29 1018.33 1018.37 1018.37 1018.33 1018.41 1018.49 1018.53 1018.57 1018.61 1018.57 1018.53 1018.53 1018.57 1018.53 1018.53 1018.69 1018.77 1019.01 1019.25 1019.25 1018.81 1018.65 1018.69 1018.77 1018.69 1018.69 1019.41 1019.49 1019.41 1019.53 1019.85 1018.13 1017.93 1017.93 1017.77
1015.69 1015.89 1016.09 1016.29 1016.41 1016.61 1016.93 1017.09 1017.25 1017.45 1017.57 1017.73 1018.05 1018.05 1017.89 1017.93 1018.05 1018.17 1018.13 1018.25 1018.29 1018.21 1018.29 1018.37 1018.37 1018.37 1018.37 1018.37 1018.41 1018.45 1018.49 1018.49 1018.53 1018.57 1018.53 1018.61 1018.69 1018.69 1018.57 1018.49 1018.37 1018.49 1018.53 1018.57 1018.85 1019.25 1019.25 1019.17 1018.97 1018.89 1018.81 1018.61 1018.73 1018.81 1018.85 1019.25 1019.81 1019.61 1019.93 1018.37 1017.97 1017.97
1015.57 1015.77 1015.97 1016.17 1016.37 1016.53 1016.85 1017.05 1017.25 1017.45 1017.53 1017.69 1017.81 1017.89 1017.89 1017.93 1017.97 1018.09 1018.25 1018.29 1018.29 1018.29 1018.33 1018.37 1018.41 1018.41 1018.45 1018.45 1018.49 1018.53 1018.57 1018.57 1018.57 1018.57 1018.57 1018.69 1018.73 1018.65 1018.61 1018.53 1018.49 1018.41 1018.33 1018.45 1018.61 1018.93 1019.01 1018.97 1019.29 1018.97 1018.65 1018.89 1018.93 1018.81 1018.81 1018.85 1018.81 1019.37 1019.69 1020.09 1019.01 1017.85
1015.49 1015.65 1015.85 1015.97 1016.25 1016.45 1016.65 1016.85 1017.01 1017.09 1017.25 1017.41 1017.57 1017.69 1017.77 1017.81 1017.97 1018.09 1018.29 1018.29 1018.33 1018.33 1018.25 1018.29 1018.37 1018.41 1018.45 1018.45 1018.49 1018.61 1018.65 1018.69 1018.69 1018.65 1018.61 1018.61 1018.61 1018.61 1018.69 1018.65 1018.57 1018.57 1018.49 1018.45 1018.57 1018.65 1018.81 1018.89 1018.93 1018.93 1018.89 1019.01 1018.97 1019.01 1019.01 1018.85 1018.77 1018.89 1019.41 1019.65 1019.29 1018.77
1015.45 1015.57 1015.69 1015.89 1016.05 1016.33 1016.49 1016.61 1016.77 1016.89 1017.13 1017.45 1017.53 1017.65 1017.69 1017.89 1018.05 1018.09 1018.25 1018.33 1018.29 1018.29 1018.33 1018.33 1018.33 1018.41 1018.45 1018.49 1018.53 1018.57 1018.65 1018.77 1018.81 1018.77 1018.69 1018.69 1018.65 1018.61 1018.57 1018.61 1018.65 1018.69 1018.65 1018.65 1018.49 1018.41 1018.53 1018.57 1018.61 1018.53 1018.61 1018.73 1018.97 1018.85 1018.93 1018.93 1018.89 1018.97 1018.97 1019.01 1019.45 1019.01
1015.29 1015.45 1015.57 1015.77 1015.97 1016.21 1016.41 1016.49 1016.61 1016.77 1017.01 1017.25 1017.33 1017.53 1017.81 1018.01 1018.05 1018.09 1018.29 1018.29 1018.33 1018.25 1018.33 1018.33 1018.37 1018.33 1018.37 1018.49 1018.53 1018.61 1018.69 1018.73 1018.77 1018.77 1018.77 1018.73 1018.69 1018.69 1018.65 1018.61 1018.57 1018.53 1018.57 1018.65 1018.61 1018.49 1018.37 1018.29 1018.29 1018.33 1018.41 1018.53 1018.53 1018.57 1018.57 1018.73 1018.61 1018.65 1018.73 1018.89 1018.97 1018.77
1015.25 1015.37 1015.53 1015.65 1015.89 1016.13 1016.33 1016.45 1016.45 1016.65 1016.93 1016.97 1017.13 1017.41 1017.65 1017.85 1017.93 1018.01 1018.13 1018.25 1018.17 1018.25 1018.17 1018.25 1018.29 1018.37 1018.41 1018.41 1018.53 1018.61 1018.69 1018.73 1018.77 1018.81 1018.85 1018.85 1018.77 1018.65 1018.61 1018.65 1018.65 1018.61 1018.57 1018.53 1018.53 1018.49 1018.45 1018.37 1018.25 1018.21 1018.21 1018.25 1018.25 1018.17 1018.17 1018.21 1018.17 1018.25 1018.33 1018.37 1018.49 1018.41
1015.17 1015.25 1015.41 1015.57 1015.77 1016.01 1016.25 1016.33 1016.41 1016.57 1016.73 1016.85 1016.97 1017.13 1017.41 1017.57 1017.77 1017.85 1017.97 1018.13 1018.17 1018.21 1018.21 1018.29 1018.29 1018.33 1018.41 1018.45 1018.53 1018.61 1018.69 1018.77 1018.85 1018.89 1018.97 1019.01 1019.01 1018.93 1018.81 1018.69 1018.65 1018.69 1018.65 1018.61 1018.61 1018.65 1018.61 1018.53 1018.41 1018.29 1018.13 1017.93 1018.05 1018.13 1018.01 1017.65 1017.61 1017.81 1017.97 1018.01 1018.21 1018.49
1014.85 1015.01 1015.25 1015.45 1015.65 1015.89 1016.05 1016.17 1016.25 1016.41 1016.57 1016.73 1016.89 1016.97 1017.21 1017.37 1017.57 1017.61 1017.73 1017.89 1018.01 1018.05 1018.17 1018.17 1018.29 1018.37 1018.33 1018.37 1018.45 1018.53 1018.65 1018.77 1018.85 1018.93 1018.93 1018.97 1019.01 1019.01 1019.01 1019.01 1018.89 1018.77 1018.69 1018.65 1018.61 1018.57 1018.53 1018.41 1018.33 1018.21 1018.01 1017.97 1017.89 1017.77 1017.65 1017.53 1017.49 1017.53 1017.69 1018.09 1018.37 1018.17
1014.61 1014.89 1015.05 1015.25 1015.49 1015.65 1015.89 1016.05 1016.17 1016.29 1016.41 1016.61 1016.77 1016.93 1017.05 1017.17 1017.33 1017.45 1017.61 1017.73 1017.81 1017.85 1017.97 1018.09 1018.13 1018.17 1018.17 1018.25 1018.37 1018.49 1018.57 1018.69 1018.77 1018.85 1018.93 1019.01 1019.05 1019.09 1019.09 1019.09 1019.05 1019.01 1018.85 1018.77 1018.69 1018.57 1018.45 1018.33 1018.25 1018.17 1018.05 1017.93 1017.77 1017.65 1017.49 1017.33 1017.29 1017.21 1017.21 1017.29 1017.37 1017.41
1014.01 1014.45 1014.73 1015.01 1015.21 1015.37 1015.65 1015.85 1016.05 1016.21 1016.33 1016.49 1016.65 1016.81 1016.97 1017.05 1017.17 1017.25 1017.41 1017.53 1017.65 1017.73 1017.81 1017.93 1018.05 1018.09 1018.21 1018.29 1018.45 1018.53 1018.61 1018.69 1018.77 1018.85 1018.93 1019.01 1019.05 1019.13 1019.13 1019.13 1019.09 1019.05 1018.97 1018.81 1018.77 1018.65 1018.49 1018.33 1018.17 1018.09 1017.97 1017.77 1017.69 1017.49 1017.21 1017.01 1016.93 1016.85 1016.89 1016.89 1016.89 1016.93
1013.57 1014.01 1014.33 1014.53 1014.81 1015.13 1015.41 1015.69 1015.89 1016.01 1016.21 1016.37 1016.53 1016.69 1016.81 1016.93 1017.01 1017.09 1017.21 1017.37 1017.53 1017.61 1017.69 1017.81 1017.93 1018.01 1018.17 1018.25 1018.37 1018.49 1018.61 1018.69 1018.73 1018.81 1018.85 1018.85 1018.89 1018.93 1018.97 1019.09 1019.09 1019.09 1019.05 1018.93 1018.85 1018.77 1018.65 1018.53 1018.29 1018.09 1017.93 1017.73 1017.53 1017.25 1017.01 1016.77 1016.61 1016.57 1016.49 1016.53 1016.61 1016.57
Wind_Speed
6 7 7 6 5 5 7 9 7 8 9 8 9 13 8 10 8 8 8 8 7 5 5 5 6 5 10 6 10 9 9 11 12 12 11 11 11 10 11 10 8 7 7 8 8 7 5 3 4 6 6 5 8 4 4 4 7 5 6 7 7 7
6 7 7 5 4 5 5 7 5 4 4 5 6 7 6 4 6 4 6 5 3 4 5 4 5 6 4 6 8 9 9 11 12 12 11 10 11 10 10 9 8 8 7 7 7 3 3 4 4 6 7 6 6 4 1 4 5 6 6 5 6 9
7 6 7 6 4 4 5 5 5 5 4 5 6 5 3 4 4 4 4 4 4 4 3 4 3 5 3 6 8 10 9 11 11 11 10 9 9 9 10 9 8 8 7 5 3 2 2 2 3 6 6 4 5 5 3 4 4 6 6 6 5 12
6 6 7 5 5 4 4 4 4 4 4 4 4 4 3 4 6 6 6 5 4 5 5 5 8 10 7 4 3 9 8 10 11 10 10 6 7 6 9 10 9 6 4 3 2 1 2 3 3 3 3 3 4 4 4 4 5 6 5 7 7 13
8 6 7 6 7 5 5 5 5 5 6 5 5 5 4 5 4 3 4 5 5 4 5 5 5 5 5 4 2 2 5 4 4 4 6 3 4 4 5 5 4 4 4 3 3 4 4 4 3 3 4 4 3 4 3 5 5 6 5 4 7 13
5 6 6 6 6 6 6 5 5 6 6 5 5 5 5 4 2 5 5 4 4 5 4 4 4 4 5 4 3 1 2 4 3 4 4 4 4 4 3 4 4 5 5 5 5 5 5 4 5 4 5 4 4 4 4 4 5 6 5 5 7 13
6 6 7 7 7 6 5 5 6 6 6 5 5 5 4 2 3 6 4 3 4 4 4 3 3 3 3 4 4 4 3 2 5 5 5 5 4 4 5 5 5 5 5 5 5 5 5 5 5 5 5 5 4 5 3 6 6 7 6 6 7 15
6 6 6 7 7 6 5 5 5 6 6 6 6 5 4 2 4 6 4 3 1 1 3 3 4 4 3 3 1 1 2 4 4 5 5 5 5 5 5 5 4 5 5 5 6 6 6 7 7 5 5 5 4 5 3 7 5 7 6 6 6 11
6 4 5 6 5 5 4 5 5 5 6 6 5 4 3 2 5 5 4 3 2 2 2 3 4 4 4 4 4 5 4 4 2 0 2 5 5 5 5 5 5 6 5 5 5 5 7 8 7 6 6 6 5 3 2 7 7 5 5 6 6 8
5 5 3 6 6 6 5 5 5 5 5 6 5 4 3 3 4 4 3 3 2 2 2 2 3 3 3 3 4 3 2 4 1 3 1 3 4 5 6 5 5 5 5 5 5 5 7 8 9 8 6 6 4 3 3 7 8 6 5 6 6 7
5 4 3 6 5 7 6 6 5 5 5 6 6 6 3 2 5 4 3 3 2 2 2 2 3 3 3 3 3 4 4 5 3 2 3 2 3 3 5 5 5 6 6 5 7 7 6 7 5 4 4 4 4 4 2 2 8 7 6 5 6 6
4 4 5 4 5 4 6 7 6 6 6 5 6 5 4 3 4 4 3 4 4 2 2 1 2 4 4 3 3 4 5 5 4 2 2 2 2 2 2 4 7 5 5 4 4 6 6 7 6 6 3 3 3 5 3 3 5 9 7 6 6 6
5 5 6 5 6 5 5 7 6 5 5 5 6 5 6 5 5 6 5 3 3 4 4 4 3 2 1 4 4 3 3 4 3 2 1 4 2 2 2 4 5 6 6 4 2 5 4 4 4 3 5 5 3 5 5 5 5 8 8 7 6 6
5 6 5 6 6 7 6 5 4 4 3 5 6 6 5 4 4 5 6 5 3 5 5 4 3 3 1 1 2 2 1 1 3 5 5 3 4 4 3 3 5 4 6 6 2 5 3 4 4 3 2 2 4 4 5 6 6 6 8 7 6 6
4 5 6 5 5 5 4 5 5 4 3 2 5 6 4 5 5 5 6 3 2 3 4 6 4 3 2 0 2 1 5 3 4 2 4 6 5 6 4 4 3 4 6 5 1 3 5 5 5 5 4 3 4 4 4 5 5 5 8 8 8 6
5 5 4 4 5 6 5 4 4 3 4 5 5 2 3 4 4 6 5 4 2 1 3 4 6 5 2 3 3 4 3 4 4 3 4 4 5 4 2 2 3 3 5 4 2 2 3 6 5 5 5 5 4 4 6 3 4 4 4 8 8 8
5 5 4 3 2 4 5 4 4 4 5 4 5 4 4 4 7 6 5 5 3 2 2 1 2 5 4 3 3 2 5 4 3 3 3 4 3 2 1 3 4 3 2 5 2 2 2 5 6 6 5 4 4 6 6 6 4 5 4 5 8 9
4 4 4 4 4 4 4 4 5 3 4 5 4 5 4 5 6 6 6 5 4 3 2 2 1 2 4 5 5 5 4 2 3 2 2 0 2 3 3 3 4 3 3 3 4 0 1 1 0 1 1 2 5 6 6 6 6 4 5 4 5 8
4 4 4 4 3 2 3 2 2 5 5 4 5 6 7 7 6 4 5 5 4 4 4 4 2 0 1 2 5 5 4 4 2 3 4 5 5 4 5 5 5 4 5 4 3 2 0 2 2 2 1 1 4 5 6 6 7 7 6 5 6 7
4 4 3 1 1 2 3 6 5 5 5 3 4 5 6 6 5 6 4 5 4 4 4 2 3 1 0 0 1 4 5 5 4 1 3 7 6 4 4 4 4 5 5 5 5 0 2 2 2 1 1 3 4 6 5 4 5 7 7 6 6 6
5 4 4 2 1 2 1 4 3 4 5 3 4 4 5 4 5 3 4 4 4 3 3 1 0 1 1 0 1 2 2 3 3 3 2 1 2 2 2 3 1 2 6 5 5 1 2 3 3 4 2 2 2 3 5 5 5 5 6 7 6 6
4 4 4 4 3 3 2 5 4 3 4 5 6 5 3 4 3 3 3 3 4 4 4 3 3 1 2 2 2 2 3 3 3 3 3 4 3 2 2 1 2 3 3 4 3 1 1 1 1 1 1 4 5 5 3 5 6 6 6 6 6 5
6 4 3 4 4 5 3 3 3 3 4 3 2 3 3 3 4 3 3 3 4 4 4 4 5 4 3 2 1 1 1 3 2 1 1 2 2 3 3 5 5 4 2 3 4 2 2 4 3 2 3 2 3 1 3 2 4 6 7 7 6 6
7 4 4 4 4 4 5 5 5 5 3 4 3 3 2 2 4 3 4 4 4 4 3 2 3 4 4 4 3 3 3 3 1 3 3 1 1 3 3 4 4 4 3 5 4 2 3 4 4 4 1 4 3 2 3 5 6 6 7 7 8 8
7 5 5 4 6 5 5 4 3 3 3 3 3 3 3 3 2 3 4 3 2 2 1 3 2 4 3 4 4 3 4 3 4 4 2 0 1 4 4 3 4 4 5 5 5 4 3 4 6 6 4 2 1 2 4 2 2 6 2 4 7 9
7 6 5 5 7 7 6 6 4 3 3 2 3 4 5 4 2 4 3 1 3 3 3 1 0 1 3 3 4 4 3 3 3 4 3 3 3 3 2 3 4 4 4 4 5 3 5 3 6 6 6 5 3 2 3 2 2 3 2 6 6 8
8 7 6 6 6 7 5 5 6 6 5 5 5 2 2 3 5 3 3 3 3 3 4 3 1 1 1 3 3 4 4 4 3 3 3 2 3 3 4 3 3 3 5 5 3 5 6 5 3 4 7 8 7 4 1 1 3 1 4 3 3 6
8 8 7 7 7 7 7 6 5 5 5 5 6 5 4 3 4 4 4 3 2 2 1 3 3 2 1 0 1 3 3 3 3 4 4 4 3 3 4 3 3 3 4 4 5 6 6 5 5 5 5 5 5 6 7 6 5 4 3 5 7 3
9 9 8 8 8 6 6 7 7 6 4 4 6 6 4 4 4 4 4 3 2 1 2 1 3 3 2 1 0 1 2 3 3 4 3 5 4 4 4 5 6 6 4 2 3 5 4 5 4 7 5 4 8 8 6 6 6 5 6 5 6 7
9 9 9 8 8 6 6 6 6 5 5 5 5 4 5 4 4 4 4 4 2 2 2 2 1 3 2 2 1 0 0 1 2 3 3 4 4 5 4 4 3 4 5 5 4 4 6 6 6 6 6 6 6 6 7 7 6 7 8 8 8 6
10 9 9 10 8 8 5 6 6 6 6 7 6 6 5 4 4 4 4 4 4 4 3 5 3 3 2 1 2 1 0 0 1 2 3 5 4 4 4 4 4 4 4 5 6 5 5 5 6 6 6 7 8 8 8 8 7 6 7 6 6 9
8 9 9 9 8 7 6 7 6 7 6 7 7 6 7 7 6 5 4 5 4 3 3 3 4 3 3 4 3 3 2 2 1 2 3 4 5 5 4 3 5 6 6 5 5 6 5 5 5 5 5 5 7 7 8 8 8 8 7 7 6 8
10 9 10 9 9 8 6 7 7 7 6 6 6 7 7 7 6 6 5 5 4 4 3 3 4 3 3 3 3 2 1 1 1 1 2 2 3 4 6 7 6 5 5 5 5 5 6 6 5 5 6 5 6 7 8 7 7 6 5 4 6 8
11 10 9 9 10 8 7 7 6 6 6 6 6 6 6 7 6 6 6 5 5 5 5 4 3 4 3 3 2 2 2 1 0 1 2 3 3 3 4 4 5 7 6 5 5 5 6 6 5 5 5 6 5 7 8 8 8 7 7 7 8 9
11 9 10 11 8 10 8 7 5 6 6 5 7 6 5 6 6 6 5 6 5 4 4 3 3 2 2 2 2 1 0 0 1 2 2 3 3 3 3 3 3 5 6 6 6 6 6 7 7 6 6 5 6 6 7 7 7 9 7 8 9 7
13 12 12 10 10 10 8 7 6 7 7 6 5 5 5 4 5 6 5 6 5 4 4 3 2 2 2 3 3 2 1 1 2 2 3 2 2 2 3 4 5 5 6 5 7 7 7 7 7 7 7 7 6 7 7 7 7 7 8 8 7 7
12 12 12 12 11 10 9 8 7 7 6 6 6 6 6 5 6 5 5 4 4 4 3 3 2 2 1 1 2 2 1 2 2 3 3 3 3 3 3 3 4 4 4 4 5 6 6 7 7 7 7 8 8 7 7 7 7 7 7 7 7 8
Wind_Direction
130 132 129 123 118 110 113 111 102 104 107 111 120 134 150 115 117 121 125 125 118 112 117 121 122 130 131 129 124 129 136 140 136 135 139 141 143 143 146 150 145 149 158 154 160 166 171 204 263 281 295 317 313 330 39 34 112 120 124 130 134 142
126 123 122 118 117 119 122 113 112 111 107 109 116 120 120 118 115 113 121 120 118 123 120 126 130 133 127 136 131 133 140 146 141 140 143 144 147 151 151 153 155 160 171 176 162 152 180 205 227 270 287 307 311 317 28 76 126 124 122 128 136 145
115 127 117 121 122 119 119 127 134 136 127 132 143 124 122 129 123 135 138 139 144 132 125 128 124 118 121 132 135 139 142 149 146 146 144 145 149 157 158 159 163 171 180 162 151 172 219 227 224 245 271 298 299 307 311 78 131 125 131 141 140 145
103 107 107 112 105 92 101 87 85 78 116 133 131 134 157 152 162 163 161 150 93 91 89 84 99 106 71 12 131 139 143 147 150 149 145 141 142 153 166 164 167 166 146 159 171 250 227 241 249 248 249 266 280 293 301 81 133 127 143 145 143 147
122 114 113 108 108 110 92 86 73 67 70 66 59 64 61 52 45 62 84 82 96 95 102 102 102 102 94 106 36 312 141 129 132 135 133 127 148 180 174 175 165 151 158 174 177 232 232 221 239 230 238 239 251 268 269 117 145 136 140 144 147 150
91 100 105 106 105 109 104 95 83 80 73 51 65 64 63 68 59 58 67 87 96 104 102 113 128 118 104 94 116 217 319 136 142 145 138 159 181 189 200 196 182 174 183 187 191 216 229 203 219 215 233 232 231 251 258 136 147 134 136 148 152 148
77 110 109 108 98 92 92 99 93 90 85 65 62 66 65 103 100 80 73 81 98 118 129 128 114 101 116 127 133 176 201 227 151 162 172 165 200 202 199 207 199 200 189 189 202 210 220 203 204 206 218 232 220 233 211 153 136 140 151 161 163 154
53 93 122 117 116 121 123 110 103 92 88 90 79 68 73 116 105 104 93 55 85 97 117 130 126 131 125 111 133 107 97 256 174 172 192 178 193 213 200 215 217 212 202 203 205 210 217 198 201 205 209 229 223 234 215 141 136 146 159 164 162 161
41 43 111 119 115 114 111 109 107 105 104 101 96 92 83 95 87 105 123 136 138 118 120 147 133 148 129 153 153 162 185 226 270 172 218 208 203 202 210 210 217 219 212 216 213 200 199 187 195 201 196 233 235 210 202 128 140 157 165 161 165 174
38 30 78 112 124 125 133 121 113 113 121 109 110 97 82 79 91 96 93 99 109 144 172 146 123 130 133 157 154 161 189 228 186 120 135 278 264 205 213 217 225 217 221 230 233 224 184 180 191 201 175 194 220 196 219 134 155 166 169 165 165 172
39 35 77 110 118 130 131 123 128 132 124 131 130 114 82 84 91 95 108 101 104 149 143 112 128 127 152 163 143 162 207 226 202 166 158 201 325 282 222 232 226 218 223 220 237 209 177 158 182 199 206 184 185 174 183 185 150 154 164 174 170 176
45 50 53 64 80 76 122 132 134 138 139 138 126 125 137 154 124 117 122 128 137 121 92 101 150 164 160 139 163 168 190 222 223 179 172 208 254 305 290 269 261 244 233 211 219 204 177 154 159 182 192 228 179 183 198 209 161 158 158 172 178 178
65 52 58 59 59 56 59 98 125 138 139 140 124 137 153 166 155 150 142 147 154 149 163 181 180 192 200 160 157 167 158 200 204 188 138 243 240 265 326 299 285 269 268 260 177 214 164 126 140 163 158 194 204 200 194 170 198 137 164 172 176 175
63 59 56 61 62 58 67 85 87 70 73 133 149 157 160 164 159 133 136 161 172 170 168 166 191 177 169 144 117 106 62 132 170 171 153 168 283 289 274 271 282 294 268 260 179 210 141 143 151 168 179 183 182 201 201 177 181 159 160 161 178 179
80 70 67 62 67 70 77 78 73 70 34 55 138 147 156 164 151 147 132 135 165 195 193 162 173 161 142 142 98 152 222 214 213 196 158 153 196 230 245 252 271 297 271 231 166 220 167 170 187 197 205 199 196 183 203 188 169 191 154 170 166 179
88 89 82 84 90 96 88 83 85 78 54 57 67 98 128 141 144 111 126 139 168 203 181 186 159 152 158 167 151 191 235 219 219 203 175 177 188 208 208 282 262 235 277 265 247 196 190 189 188 188 207 217 182 175 169 194 190 208 196 157 174 175
121 120 116 114 97 105 112 116 118 103 81 67 68 52 4 28 84 102 105 108 118 97 54 109 151 142 150 158 98 15 240 233 200 190 162 187 183 217 202 298 287 269 263 279 248 262 211 208 193 190 199 218 198 160 164 185 209 216 204 180 169 179
147 146 153 155 166 156 146 149 144 136 100 91 70 40 49 63 78 96 95 88 76 52 77 92 122 120 135 120 124 155 272 228 222 210 137 263 222 197 180 230 275 297 305 305 284 26 333 132 320 295 271 237 228 160 169 175 201 225 225 217 216 177
142 156 165 171 181 175 109 87 69 95 98 96 69 68 61 62 60 61 93 103 80 63 51 31 40 336 57 132 126 145 181 261 298 185 189 242 242 202 191 211 237 305 316 311 322 113 201 23 50 30 30 240 248 215 184 177 175 203 228 227 208 211
156 172 177 166 82 79 66 104 86 60 68 52 76 77 73 83 62 52 53 64 69 107 78 41 360 64 17 34 118 142 138 191 236 319 151 190 221 210 182 192 210 245 278 299 290 120 112 67 11 19 257 278 224 226 209 190 183 182 203 229 229 211
192 174 156 141 134 112 115 92 67 74 105 86 90 86 87 90 85 77 59 63 60 73 102 124 187 97 91 279 160 143 146 188 185 214 178 227 170 183 197 152 188 187 221 244 279 246 116 109 50 345 327 326 312 240 217 207 216 200 193 206 220 222
191 185 157 169 162 125 155 156 146 141 125 100 92 99 98 108 111 97 97 69 69 69 55 34 2 301 184 173 194 176 185 203 177 185 187 172 190 218 225 288 238 234 214 215 247 244 227 77 25 145 25 337 328 330 261 221 225 228 213 205 204 209
192 173 184 163 140 123 107 106 112 114 131 93 92 142 147 151 137 154 122 100 93 67 56 19 360 1 347 321 325 334 280 183 177 147 169 203 182 202 208 226 220 213 245 297 271 258 202 177 197 127 118 79 307 352 326 282 270 246 228 219 215 216
186 167 175 163 121 117 109 105 101 114 105 132 152 128 93 66 98 90 97 102 86 88 58 12 20 1 4 16 52 66 33 35 89 143 180 251 267 233 211 203 217 216 184 224 237 268 203 190 175 129 259 188 217 156 281 267 238 245 219 219 211 220
172 173 167 143 131 124 104 79 73 63 61 75 58 75 80 80 89 106 102 94 111 91 74 59 19 343 25 18 360 32 37 39 24 8 27 28 222 238 235 227 205 196 196 212 235 238 253 199 204 197 169 137 160 232 215 254 245 270 235 238 228 220
160 165 149 147 143 133 141 137 132 123 124 118 119 134 127 160 120 108 155 176 144 146 125 107 336 4 20 16 7 5 37 30 8 1 358 345 323 319 287 237 233 216 223 218 225 229 244 246 222 215 228 230 176 176 174 193 71 276 300 221 229 226
164 165 154 153 147 140 144 155 161 171 178 164 160 193 174 151 137 153 109 97 141 139 150 154 198 91 353 8 15 18 9 4 356 349 332 353 335 308 301 283 246 210 221 222 195 237 244 249 272 267 230 242 266 267 180 126 213 305 306 311 253 232
163 165 165 156 159 156 163 175 174 175 180 167 163 167 158 150 144 139 135 162 173 198 170 170 177 174 183 127 12 10 25 27 8 349 354 347 324 311 327 331 323 279 251 219 198 214 243 233 227 250 229 237 258 267 258 253 240 228 241 290 292 280
164 165 169 164 165 174 172 178 172 166 148 145 157 159 156 147 138 141 136 163 136 211 132 104 157 175 175 177 213 29 31 3 356 344 345 339 340 341 337 332 331 333 323 257 214 242 249 247 225 245 254 240 234 236 252 247 250 241 240 246 269 257
168 168 171 169 172 178 178 165 160 160 144 153 149 158 142 154 153 151 151 177 190 189 192 199 202 135 172 193 141 100 13 354 338 333 336 331 328 332 336 344 348 344 337 322 285 231 223 234 235 244 233 242 247 254 241 247 238 236 241 233 246 273
173 167 170 174 171 186 173 171 166 173 159 166 168 157 151 164 162 157 166 189 184 214 186 197 186 165 162 167 157 143 158 329 333 324 324 315 307 308 317 330 330 338 336 332 325 301 265 241 233 235 238 233 238 232 239 237 239 230 224 227 230 249
172 171 173 173 176 182 172 177 172 178 171 179 166 164 166 174 173 178 180 186 201 171 191 164 176 175 192 201 171 179 183 199 237 265 276 285 299 310 319 336 336 329 321 322 322 326 315 289 256 249 242 239 244 240 240 236 232 237 226 236 239 252
180 173 174 172 176 182 169 181 176 179 176 175 168 170 164 177 180 175 175 175 182 198 207 186 199 183 205 177 140 123 120 198 302 314 317 330 326 333 333 329 324 313 308 310 311 316 311 300 291 269 256 233 232 251 254 249 245 229 225 243 236 253
179 177 169 171 176 176 182 182 178 176 173 165 171 169 172 175 179 171 172 183 184 187 179 190 178 167 162 140 122 135 118 127 152 3 356 353 346 341 337 323 314 314 309 303 308 303 296 294 289 274 268 265 248 237 240 248 253 247 228 212 230 236
175 175 171 175 172 179 179 185 178 178 170 166 172 173 182 169 168 167 183 183 186 176 158 187 163 202 166 146 157 130 125 47 350 326 317 313 311 321 320 325 319 320 317 317 312 309 302 303 302 304 295 270 255 249 247 243 241 249 241 227 222 218
172 175 176 170 178 175 179 178 175 174 176 170 169 167 178 164 174 172 176 165 179 166 166 150 152 126 151 146 149 166 161 219 244 249 252 246 260 294 304 303 297 297 301 309 311 309 303 305 304 303 300 297 282 261 246 242 237 239 242 244 233 227
173 173 175 177 172 174 172 173 183 175 169 172 171 177 183 179 177 174 159 152 152 174 154 148 144 130 144 148 163 164 192 227 244 242 239 234 226 230 239 265 276 281 283 296 304 308 313 309 306 306 303 299 292 284 266 251 245 238 241 243 246 233